Location: Mt. Bigelow
(32.4165°N, 110.7345°W)
Time: 04:01:36
(UTC-07:00)

Amateur Radio Satellites - All Passes

Search period start: 20 September 2017 03:31
Search period end: 21 September 2017 03:31
Location: Mt. Bigelow, 32.4165°N, 110.7345°W

Satellite Date Start Highest point End Downlink Frequencies (MHz)
Time Altitude Azimuth
nSIGHT-1 20 Sep 03:43:26 03:44:44 12° 31° (NNE) 03:46:02 .
KKS-1 20 Sep 03:44:51 03:47:37 17° 68° (ENE) 03:50:24 437.445
AO-7 20 Sep 03:55:20 04:03:38 76° 106° (ESE) 04:11:54 .
Gurwin Techsat 1B 20 Sep 03:55:37 03:56:15 10° 297° (WNW) 03:56:53 435.225
ITAMSAT 1 20 Sep 03:55:57 04:01:09 76° 102° (ESE) 04:06:20 435.822/435.867
Tancredo 1 20 Sep 04:15:06 04:17:37 36° 228° (SW) 04:20:08 437.200
STARS 20 Sep 04:20:56 04:23:36 16° 68° (ENE) 04:26:16 437.465
ITUPSAT 1 20 Sep 04:24:23 04:25:33 11° 267° (W) 04:26:42 437.325
ISS 20 Sep 04:31:11 04:34:05 28° 38° (NE) 04:36:58 437.550
CUBESAT XI-V 20 Sep 04:45:54 04:50:03 31° 262° (W) 04:54:15 437.345
BEESAT 3 20 Sep 05:11:22 05:14:57 32° 57° (ENE) 05:18:27 437.485
BEESAT 2 20 Sep 05:11:46 05:12:11 10° 49° (NE) 05:12:38 435.950
nSIGHT-1 20 Sep 05:18:09 05:21:23 69° 225° (SW) 05:24:35 .
KKS-1 20 Sep 05:19:50 05:23:51 34° 261° (W) 05:27:53 437.445
RS-15 20 Sep 05:23:34 05:35:41 77° 114° (ESE) 05:48:00 29.354- 29.394
XW-2B 20 Sep 05:27:33 05:29:01 12° 93° (E) 05:30:27 145.730 - 145.750
XW-2F 20 Sep 05:30:42 05:32:19 12° 93° (E) 05:33:56 145.980 - 146.000
ITAMSAT 1 20 Sep 05:38:47 05:39:54 11° 297° (WNW) 05:41:00 435.822/435.867
DOVE 4 20 Sep 05:46:01 05:50:14 79° 282° (WNW) 05:54:37 437.250
XW-2C 20 Sep 05:47:13 05:50:17 23° 96° (E) 05:53:19 145.795 - 145.815
AO-7 20 Sep 05:49:53 05:55:30 21° 302° (WNW) 06:01:07 .
LilacSat-2 20 Sep 05:54:20 05:57:45 31° 98° (E) 06:01:08 437.200
STARS 20 Sep 05:55:40 05:59:36 34° 261° (W) 06:03:34 437.465
NUDT-PHONESAT 20 Sep 06:06:02 06:09:16 27° 97° (E) 06:12:27 437.300
ISS 20 Sep 06:08:00 06:10:24 19° 232° (SW) 06:12:47 437.550
STRAND 1 20 Sep 06:16:26 06:20:29 25° 69° (ENE) 06:24:33 437.568
AO-85 20 Sep 06:24:17 06:28:50 81° 63° (ENE) 06:33:45 145.980
KAITUO 1B 20 Sep 06:27:41 06:31:23 60° 100° (E) 06:35:02 145.475/437.950
CUTE 1.7 + AOD 2 20 Sep 06:29:05 06:31:07 13° 93° (E) 06:33:08 437.475
BEESAT 2 20 Sep 06:46:20 06:50:18 62° 245° (WSW) 06:54:12 435.950
XW-2D 20 Sep 06:47:26 06:51:04 45° 285° (WNW) 06:54:40 145.860 - 145.880
BEESAT 3 20 Sep 06:50:00 06:52:09 14° 252° (WSW) 06:54:18 437.485
CUTE-I 20 Sep 06:54:43 07:00:02 74° 285° (WNW) 07:05:19 437.470
XW-2B 20 Sep 06:59:50 07:03:15 32° 286° (WNW) 07:06:38 145.730 - 145.750
XW-2F 20 Sep 07:03:08 07:06:29 31° 287° (WNW) 07:09:48 145.980 - 146.000
XW-2C 20 Sep 07:21:42 07:24:15 17° 289° (WNW) 07:26:46 145.795 - 145.815
XW-2A 20 Sep 07:22:34 07:25:15 21° 96° (E) 07:27:53 145.665 - 145.685
HO-68 20 Sep 07:25:14 07:32:22 65° 103° (ESE) 07:39:28 435.675
ZACube-1 20 Sep 07:29:41 07:30:58 11° 92° (E) 07:32:15 437.345
LilacSat-2 20 Sep 07:29:50 07:31:41 13° 291° (WNW) 07:33:32 437.200
RS-15 20 Sep 07:38:57 07:49:22 31° 315° (NW) 07:59:52 29.354- 29.394
NUDT-PHONESAT 20 Sep 07:40:52 07:42:49 14° 290° (WNW) 07:44:46 437.300
SEEDS 20 Sep 07:42:33 07:46:42 68° 101° (E) 07:50:49 437.485
CUBEBUG 2 20 Sep 07:51:05 07:55:47 77° 101° (E) 08:00:32 437.445
STRAND 1 20 Sep 07:55:03 07:59:28 30° 263° (W) 08:03:55 437.568
CUTE 1.7 + AOD 2 20 Sep 08:03:09 08:07:02 37° 286° (WNW) 08:10:54 437.475
UWE-3 20 Sep 08:06:22 08:11:00 64° 101° (E) 08:15:37 435.000/436.395/437.385
FO-29 20 Sep 08:08:53 08:14:15 35° 72° (ENE) 08:19:09 435.910
AAUSAT CUBESAT 2 20 Sep 08:17:11 08:21:17 75° 101° (E) 08:25:21 437.432
XW-2A 20 Sep 08:55:47 08:57:44 15° 289° (WNW) 08:59:40 145.665 - 145.685
AO-73 20 Sep 09:02:31 09:07:02 61° 284° (WNW) 09:11:30 145.935
ZACube-1 20 Sep 09:03:01 09:07:28 53° 285° (WNW) 09:11:54 437.345
Oscar 11 20 Sep 09:06:12 09:10:32 81° 283° (WNW) 09:14:50 .
Max Valier Satellite 20 Sep 09:06:55 09:08:08 11° 93° (E) 09:09:21 145.860
UNISAT 6 20 Sep 09:11:14 09:15:15 42° 74° (ENE) 09:19:22 437.425
HO-68 20 Sep 09:14:26 09:19:25 21° 298° (WNW) 09:24:25 435.675
TIGRISAT 20 Sep 09:35:47 09:40:02 79° 75° (ENE) 09:44:23 435.000
PRISM 20 Sep 09:43:50 09:47:51 55° 75° (ENE) 09:51:51 437.425
UWE-3 20 Sep 09:45:58 09:46:50 10° 294° (WNW) 09:47:43 435.000/436.395/437.385
FO-29 20 Sep 09:54:26 09:59:17 25° 262° (W) 10:03:48 435.910
RS-15 20 Sep 10:05:14 10:07:55 11° 349° (N) 10:10:36 29.354- 29.394
EO-88 20 Sep 10:14:05 10:17:43 76° 101° (ESE) 10:21:20 145.990 - 145.960
DELFI C3 20 Sep 10:21:22 10:25:04 43° 285° (WNW) 10:28:45 145.870
AIST 2D 20 Sep 10:25:12 10:28:10 26° 73° (ENE) 10:31:09 435.315
Max Valier Satellite 20 Sep 10:38:39 10:42:02 33° 286° (WNW) 10:45:22 145.860
DUCHIFAT 1 20 Sep 10:40:11 10:41:55 12° 67° (ENE) 10:43:40 145.980
ESTCUBE 1 20 Sep 10:41:40 10:43:09 11° 93° (E) 10:44:37 437.505/2401.250
POLYITAN 1 20 Sep 10:46:40 10:49:42 20° 70° (ENE) 10:52:47 437.675
YUBILEINY 20 Sep 10:49:19 10:53:49 15° 80° (E) 10:58:19 435.215
UNISAT 6 20 Sep 10:50:27 10:52:09 12° 267° (W) 10:53:51 437.425
EO-79 20 Sep 10:51:48 10:55:05 23° 71° (ENE) 10:58:24 145.935-145.965
QB50P2 20 Sep 11:03:26 11:07:14 35° 73° (ENE) 11:11:05 145.880/145.840
LO-87 20 Sep 11:22:40 11:26:14 64° 101° (E) 11:29:47 145.935 - 145.965
BUGSAT 1 20 Sep 11:31:02 11:32:15 11° 67° (ENE) 11:33:29 437.445
NANOSAT C BR1 20 Sep 11:42:22 11:46:32 90° 23° (NNE) 11:50:43 145.865
M-CUBED/EXP-1 PRIME 20 Sep 11:44:21 11:48:41 51° 71° (ENE) 11:52:45 437.505
O/OREOS (USA 219) 20 Sep 11:47:52 11:50:05 13° 60° (ENE) 11:52:18 437.305
SPROUT 20 Sep 11:53:33 11:56:30 18° 95° (E) 11:59:27 437.525
AIST 2D 20 Sep 11:59:44 12:01:20 13° 266° (W) 12:02:57 435.315
DUCHIFAT 1 20 Sep 12:13:14 12:17:09 41° 261° (W) 12:21:06 145.980
ESTCUBE 1 20 Sep 12:15:50 12:20:09 48° 286° (WNW) 12:24:26 437.505/2401.250
RS-15 20 Sep 12:21:25 12:28:25 17° 28° (NNE) 12:35:13 29.354- 29.394
POLYITAN 1 20 Sep 12:21:50 12:25:18 25° 263° (W) 12:28:47 437.675
EO-79 20 Sep 12:27:30 12:30:43 21° 264° (W) 12:33:58 145.935-145.965
Oscar 19 20 Sep 12:33:37 12:38:16 34° 71° (ENE) 12:42:55 437.125/150
YUBILEINY 20 Sep 12:40:42 12:49:26 83° 276° (W) 12:58:10 435.215
QB50P2 20 Sep 12:40:56 12:43:06 14° 266° (W) 12:45:15 145.880/145.840
DX 1 20 Sep 12:47:32 12:49:21 12° 94° (E) 12:51:09 434.975-435.025
NO-84 20 Sep 12:51:41 12:55:27 42° 127° (SE) 12:58:56 435.350 FM
VELOX 1 20 Sep 13:00:50 13:05:13 88° 104° (ESE) 13:09:35 145.980
AO-7 20 Sep 13:03:00 13:05:48 12° 52° (NE) 13:08:34 .
BUGSAT 1 20 Sep 13:03:24 13:07:10 41° 261° (W) 13:10:59 437.445
M-CUBED/EXP-1 PRIME 20 Sep 13:21:44 13:23:08 11° 261° (W) 13:24:32 437.505
O/OREOS (USA 219) 20 Sep 13:25:19 13:29:44 49° 255° (WSW) 13:34:08 437.305
Gurwin Techsat 1B 20 Sep 13:28:04 13:33:21 81° 76° (ENE) 13:38:40 435.225
SPROUT 20 Sep 13:28:41 13:32:21 28° 288° (WNW) 13:36:01 437.525
SO-50 20 Sep 13:29:12 13:32:43 23° 111° (ESE) 13:36:14 436.795
50 SAT 20 Sep 13:31:50 13:35:07 69° 102° (ESE) 13:38:22 437.505
Oscar 19 20 Sep 14:13:34 14:17:33 22° 264° (W) 14:21:34 437.125/150
DX 1 20 Sep 14:21:35 14:25:39 42° 287° (WNW) 14:29:43 434.975-435.025
UKube-1 20 Sep 14:22:04 14:26:19 69° 285° (WNW) 14:30:35 .
NO-84 20 Sep 14:30:25 14:32:56 17° 319° (NW) 14:35:19 435.350 FM
RS-15 20 Sep 14:32:35 14:44:17 58° 56° (NE) 14:55:18 29.354- 29.394
PCSat 20 Sep 14:33:28 14:38:42 54° 111° (ESE) 14:43:59 145.827
YUBILEINY 20 Sep 14:44:00 14:47:27 13° 294° (WNW) 14:50:54 435.215
ITUPSAT 1 20 Sep 14:48:36 14:52:16 21° 96° (E) 14:55:54 437.325
AO-7 20 Sep 14:48:48 14:57:03 70° 70° (ENE) 15:05:18 .
MOZHAYETS 4 20 Sep 14:53:10 14:56:56 24° 96° (E) 15:00:39
SO-50 20 Sep 15:09:08 15:13:00 28° 305° (NW) 15:16:53 436.795
ITAMSAT 1 20 Sep 15:09:13 15:14:20 73° 75° (ENE) 15:19:29 435.822/435.867
BEESAT 20 Sep 15:26:51 15:31:34 60° 101° (E) 15:36:17 436.000
PCSat 20 Sep 16:18:48 16:22:24 18° 307° (NW) 16:26:01 145.827
ITUPSAT 1 20 Sep 16:25:50 16:30:02 31° 289° (WNW) 16:34:13 437.325
MOZHAYETS 4 20 Sep 16:30:10 16:33:56 25° 289° (WNW) 16:37:42
CUTE-I 20 Sep 16:35:57 16:37:44 12° 64° (ENE) 16:39:31 437.470
AO-7 20 Sep 16:44:27 16:50:15 21° 264° (W) 16:56:06 .
RS-15 20 Sep 16:46:00 16:55:59 35° 255° (WSW) 17:05:36 29.354- 29.394
CUBESAT XI-V 20 Sep 16:46:23 16:51:02 89° 273° (W) 16:55:37 437.345
DOVE 4 20 Sep 16:46:38 16:51:09 59° 76° (ENE) 16:55:27 437.250
KAITUO 1B 20 Sep 17:04:16 17:06:23 14° 70° (ENE) 17:08:28 145.475/437.950
BEESAT 20 Sep 17:07:09 17:08:46 12° 295° (WNW) 17:10:22 436.000
KKS-1 20 Sep 17:14:42 17:19:05 61° 101° (ESE) 17:23:28 437.445
XW-2D 20 Sep 17:23:37 17:27:10 38° 74° (ENE) 17:30:44 145.860 - 145.880
XW-2B 20 Sep 17:35:39 17:39:22 53° 76° (ENE) 17:43:07 145.730 - 145.750
XW-2F 20 Sep 17:38:28 17:42:11 56° 76° (ENE) 17:45:57 145.980 - 146.000
STARS 20 Sep 17:48:54 17:53:14 57° 101° (E) 17:57:33 437.465
HO-68 20 Sep 17:49:33 17:55:29 30° 65° (ENE) 18:01:27 435.675
XW-2C 20 Sep 17:56:42 18:00:30 73° 258° (WSW) 18:04:21 145.795 - 145.815
LilacSat-2 20 Sep 18:04:55 18:08:39 51° 260° (W) 18:12:26 437.200
CUTE-I 20 Sep 18:11:49 18:17:06 72° 258° (WSW) 18:22:24 437.470
NUDT-PHONESAT 20 Sep 18:13:19 18:17:00 62° 260° (W) 18:20:43 437.300
SEEDS 20 Sep 18:29:47 18:33:15 25° 72° (ENE) 18:36:43 437.485
STRAND 1 20 Sep 18:33:12 18:34:59 12° 93° (E) 18:36:46 437.568
KAITUO 1B 20 Sep 18:36:48 18:40:04 28° 263° (W) 18:43:21 145.475/437.950
JUGNU 20 Sep 18:37:16 18:40:08 14° 165° (SSE) 18:43:00 437.505
CUBEBUG 2 20 Sep 18:44:55 18:48:38 32° 73° (ENE) 18:52:27 437.445
CUTE 1.7 + AOD 2 20 Sep 18:50:14 18:54:30 80° 77° (ENE) 18:58:47 437.475
BEESAT 3 20 Sep 18:57:17 18:59:52 17° 109° (ESE) 19:02:28 437.485
Tancredo 1 20 Sep 18:57:38 18:59:51 23° 130° (SE) 19:02:04 437.200
UWE-3 20 Sep 18:59:10 19:02:42 26° 71° (ENE) 19:06:19 435.000/436.395/437.385
XW-2D 20 Sep 19:00:48 19:01:27 10° 267° (W) 19:02:06 145.860 - 145.880
AAUSAT CUBESAT 2 20 Sep 19:02:49 19:06:16 26° 72° (ENE) 19:09:42 437.432
XW-2A 20 Sep 19:20:37 19:23:59 80° 77° (ENE) 19:27:23 145.665 - 145.685
STARS 20 Sep 19:28:27 19:29:01 10° 294° (WNW) 19:29:34 437.465
HO-68 20 Sep 19:36:11 19:42:53 44° 260° (W) 19:49:39 435.675
AO-73 20 Sep 19:52:56 19:57:04 54° 75° (ENE) 20:01:19 145.935
ZACube-1 20 Sep 19:53:39 19:57:50 64° 76° (ENE) 20:02:09 437.345
Oscar 11 20 Sep 19:56:06 20:00:09 40° 74° (ENE) 20:04:14 .
SEEDS 20 Sep 20:05:40 20:08:49 20° 265° (W) 20:12:00 437.485
STRAND 1 20 Sep 20:09:24 20:14:28 62° 286° (WNW) 20:19:31 437.568
nSIGHT-1 20 Sep 20:17:14 20:20:03 29° 130° (SE) 20:22:53 .
CUBEBUG 2 20 Sep 20:22:55 20:25:19 15° 267° (W) 20:27:46 437.445
JUGNU 20 Sep 20:24:05 20:28:31 22° 174° (S) 20:32:56 437.505
BEESAT 2 20 Sep 20:32:34 20:36:30 69° 115° (ESE) 20:40:30 435.950
Tancredo 1 20 Sep 20:32:36 20:34:24 16° 324° (NW) 20:36:11 437.200
BEESAT 3 20 Sep 20:33:37 20:37:08 30° 303° (WNW) 20:40:43 437.485
AO-85 20 Sep 20:34:49 20:38:43 81° 119° (ESE) 20:42:37 145.980
UWE-3 20 Sep 20:36:06 20:39:06 19° 266° (W) 20:42:11 435.000/436.395/437.385
AAUSAT CUBESAT 2 20 Sep 20:38:39 20:41:38 19° 265° (W) 20:44:37 437.432
EO-88 20 Sep 20:48:14 20:50:27 16° 70° (ENE) 20:52:41 145.990 - 145.960
DELFI C3 20 Sep 21:01:27 21:05:16 48° 75° (ENE) 21:09:05 145.870
FO-29 20 Sep 21:05:53 21:11:13 47° 101° (E) 21:17:06 435.910
NO-84 20 Sep 21:06:37 21:09:06 26° 44° (NE) 21:11:32 435.350 FM
ISS 20 Sep 21:07:16 21:10:30 69° 317° (NW) 21:13:45 437.550
UNISAT 6 20 Sep 21:08:35 21:11:04 14° 93° (E) 21:13:32 437.425
Max Valier Satellite 20 Sep 21:12:14 21:15:46 46° 75° (ENE) 21:19:19 145.860
TIGRISAT 20 Sep 21:32:05 21:35:53 25° 96° (E) 21:39:42 435.000
PRISM 20 Sep 21:32:30 21:33:05 10° 93° (E) 21:33:40 437.425
Oscar 11 20 Sep 21:34:24 21:36:25 13° 267° (W) 21:38:25 .
SRMSAT 20 Sep 21:43:43 21:46:57 15° 166° (SSE) 21:50:11 437.500
nSIGHT-1 20 Sep 21:53:57 21:56:23 20° 324° (NW) 21:58:50 .
LO-87 20 Sep 21:56:00 21:57:26 12° 69° (ENE) 21:58:51 145.935 - 145.965
JUGNU 20 Sep 22:12:26 22:16:57 23° 184° (S) 22:21:26 437.505
EO-88 20 Sep 22:20:53 22:23:52 23° 263° (W) 22:26:52 145.990 - 145.960
UNISAT 6 20 Sep 22:43:28 22:47:53 44° 286° (WNW) 22:52:20 437.425
NO-84 20 Sep 22:45:17 22:46:09 11° 238° (WSW) 22:47:01 435.350 FM
FO-29 20 Sep 22:52:15 22:56:01 19° 292° (WNW) 23:00:02 435.910
YUBILEINY 20 Sep 22:57:02 23:05:04 39° 77° (ENE) 23:13:04 435.215
PRISM 20 Sep 23:04:40 23:08:31 43° 286° (WNW) 23:12:20 437.425
TIGRISAT 20 Sep 23:08:34 23:12:25 26° 289° (WNW) 23:16:17 435.000
ESTCUBE 1 20 Sep 23:10:02 23:14:33 84° 76° (ENE) 23:19:06 437.505/2401.250
AIST 2D 20 Sep 23:26:57 23:30:26 62° 100° (E) 23:33:53 435.315
PCSat 20 Sep 23:27:04 23:30:38 18° 53° (NE) 23:34:12 145.827
LO-87 20 Sep 23:27:30 23:30:32 27° 263° (W) 23:33:34 145.935 - 145.965
SRMSAT 20 Sep 23:30:59 23:35:29 23° 175° (S) 23:39:59 437.500
NANOSAT C BR1 20 Sep 23:31:53 23:35:02 20° 96° (E) 23:38:11 145.865
SO-50 20 Sep 23:43:42 23:48:18 69° 62° (ENE) 23:52:55 436.795
VELOX 1 20 Sep 23:53:17 23:57:24 41° 73° (ENE) 00:01:32 145.980
50 SAT 21 Sep 00:00:07 00:00:17 10° 69° (ENE) 00:00:26 437.505
DUCHIFAT 1 21 Sep 00:01:25 00:05:25 40° 99° (E) 00:09:25 145.980
JUGNU 21 Sep 00:01:57 00:05:18 16° 194° (SSW) 00:08:41 437.505
POLYITAN 1 21 Sep 00:10:08 00:14:24 71° 101° (ESE) 00:18:40 437.675
EO-79 21 Sep 00:15:21 00:19:37 83° 104° (ESE) 00:23:53 145.935-145.965
SPROUT 21 Sep 00:16:23 00:20:34 71° 258° (WSW) 00:24:48 437.525
QB50P2 21 Sep 00:27:52 00:32:05 60° 284° (WNW) 00:36:17 145.880/145.840
BUGSAT 1 21 Sep 00:49:15 00:53:08 36° 99° (E) 00:57:01 437.445
Oscar 19 21 Sep 00:50:46 00:54:06 17° 94° (E) 00:57:25 437.125/150
YUBILEINY 21 Sep 00:53:55 01:01:38 37° 273° (W) 01:09:24 435.215
M-CUBED/EXP-1 PRIME 21 Sep 01:01:45 01:05:02 75° 105° (ESE) 01:08:15 437.505
NANOSAT C BR1 21 Sep 01:07:08 01:10:39 25° 289° (WNW) 01:14:09 145.865
PCSat 21 Sep 01:09:05 01:14:21 55° 249° (WSW) 01:19:35 145.827
UKube-1 21 Sep 01:11:33 01:15:42 52° 74° (ENE) 01:19:52 .
DX 1 21 Sep 01:11:50 01:16:10 88° 72° (ENE) 01:20:30 434.975-435.025
SRMSAT 21 Sep 01:19:35 01:24:04 22° 185° (S) 01:28:34 437.500
50 SAT 21 Sep 01:29:32 01:32:26 28° 262° (W) 01:35:21 437.505
VELOX 1 21 Sep 01:31:55 01:33:58 13° 266° (W) 01:36:02 145.980
DUCHIFAT 1 21 Sep 01:38:40 01:40:41 13° 292° (WNW) 01:42:40 145.980
Gurwin Techsat 1B 21 Sep 01:49:08 01:54:15 47° 100° (E) 01:59:19 435.225
MOZHAYETS 4 21 Sep 01:51:42 01:54:07 14° 67° (ENE) 01:56:32
ITUPSAT 1 21 Sep 01:51:46 01:54:31 16° 67° (ENE) 01:57:18 437.325
O/OREOS (USA 219) 21 Sep 01:54:00 01:57:58 32° 103° (ESE) 02:01:58 437.305
BUGSAT 1 21 Sep 02:25:49 02:28:08 15° 291° (WNW) 02:30:26 437.445
BEESAT 21 Sep 02:28:36 02:33:02 40° 72° (ENE) 02:37:27 436.000
Oscar 19 21 Sep 02:28:41 02:33:33 43° 288° (WNW) 02:38:22 437.125/150
Tancredo 1 21 Sep 02:55:16 02:57:43 30° 40° (NE) 03:00:09 437.200
AO-7 21 Sep 02:56:29 03:03:29 30° 98° (E) 03:10:26 .
SRMSAT 21 Sep 03:09:29 03:12:36 15° 195° (SSW) 03:15:44 437.500
